SL-14 DEB, 45308

Orbit data source: Space-Track

SL-14 DEB, 45308 is space debris in LEO originally from a launch on Thu, 15 Aug 1991 UTC launched from the Plesetsk Missile And Space Complex (PKMTR). Debris objects in space refer to the collection of defunct objects orbiting the Earth. Examples of debris include non-operational satellites, rocket bodies, and fragments generated from explosions, collisions, or faulty payload assembly.

Loading next visibility...
Identifier
45308, 1991-056AW
Orbit
LEO
Country
Flag of CISCIS
Related business
Manufacturer
Unknown
Mission
Spacecraft
Bus & Motor
Unknown
Mass
Unknown
Launch date (UTC)
1991-08-15 (34 years ago)
Launch vehicle
Unknown
Launch site
Plesetsk Missile And Space Complex (PKMTR)
Object type
Payload
Rocket body
Debris
Shape & HBR
Unknown shape, 0.1 m
Radar Cross Section
Small (<0.1 m²)

Expand to show TLE details & history
Last TLE update: 19 hours ago

TLE from 19 hours ago
0 SL-14 DEB
1 45308U 91056AW  25287.02519187  .00000541  00000-0  12603-2 0  9992
2 45308  82.5722 305.3550 0024794 309.3713  50.5216 13.22741896271812
Epoch: 2025-10-14T00:36Z
TLE epoch observation values (Epoch: 2025-10-14T00:36:16.577Z)
Latitude
-0.00004°
Longitude
-86.53362°
Altitude
1,165.201 km
Speed
7.276 km/s
True Right ascension
20h 21m 25s
True Declination
0° 00' 00"
Sunlit
Object was in daylight at epoch
Visualization orbit readout
Latitude
Unknown
Longitude
Unknown
Altitude
Unknown
Speed
Unknown
Apparent Right ascension
Unknown
Apparent Declination
Unknown
Sunlit
N/A
Visualization observer readout
Local Sidereal Time
13:50:13
Azimuth
Unknown
Elevation
Unknown
Doppler factor
Unknown
Orbital elements
Apogee altitude
1,190.219 km
Perigee altitude
1,152.782 km
Semi-major axis
7,549.638 km
Eccentricity
0.00248
Inclination
82.5722°
RAAN
305.355°
Arg. of periapsis
309.3713°
True anomaly
50.74133°
Mean anomaly
50.5216°
Eccentric anomaly
50.63142°
Mean motion
3.30867 °/min
Orbital period
108.8 mins
BSTAR
0.0012603
Loading maneuver chart data...
Computing Atmospheric mass density...
Loading historical data...
Loading historical data...
Loading historical data...
Loading historical data...
Loading historical data...
Loading historical data...
Loading historical data...

Documentation

Showing up to 5 results
|